TimePDT,TemperatureF,Dew PointF,Humidity,Sea Level PressureIn,VisibilityMPH,Wind Direction,Wind SpeedMPH,Gust SpeedMPH,PrecipitationIn,Events,Conditions,WindDirDegrees,DateUTC
12:53 AM,57.0,36.0,45,30.11,10.0,NW,13.8,-,N/A,,Overcast,310,2013-05-19 07:53:00
1:53 AM,55.0,35.1,47,30.12,10.0,NW,16.1,21.9,N/A,,Overcast,310,2013-05-19 08:53:00
2:53 AM,55.0,35.1,47,30.13,10.0,NW,15.0,21.9,N/A,,Overcast,310,2013-05-19 09:53:00
3:53 AM,54.0,34.0,47,30.14,10.0,WNW,16.1,-,N/A,,Mostly Cloudy,300,2013-05-19 10:53:00
5:53 AM,53.1,35.1,50,30.19,10.0,WNW,5.8,-,N/A,,Mostly Cloudy,290,2013-05-19 12:53:00
6:53 AM,55.0,35.1,47,30.19,10.0,NW,10.4,-,N/A,,Clear,310,2013-05-19 13:53:00
7:53 AM,60.1,34.0,38,30.21,10.0,NW,15.0,20.7,N/A,,Clear,320,2013-05-19 14:53:00
8:53 AM,63.0,34.0,34,30.22,10.0,NW,15.0,21.9,N/A,,Mostly Cloudy,320,2013-05-19 15:53:00
9:53 AM,64.9,34.0,32,30.22,10.0,North,11.5,-,N/A,,Partly Cloudy,350,2013-05-19 16:53:00
10:53 AM,68.0,34.0,28,30.22,10.0,NNW,9.2,-,N/A,,Clear,330,2013-05-19 17:53:00
12:53 PM,71.1,34.0,26,30.20,10.0,WSW,8.1,19.6,N/A,,Scattered Clouds,250,2013-05-19 19:53:00
1:53 PM,72.0,35.1,26,30.19,10.0,West,8.1,17.3,N/A,,Clear,260,2013-05-19 20:53:00
2:53 PM,73.0,34.0,24,30.19,10.0,WSW,9.2,17.3,N/A,,Clear,240,2013-05-19 21:53:00
3:53 PM,73.9,34.0,23,30.18,10.0,WSW,11.5,19.6,N/A,,Clear,240,2013-05-19 22:53:00
4:53 PM,73.9,34.0,23,30.17,10.0,WSW,11.5,17.3,N/A,,Partly Cloudy,240,2013-05-19 23:53:00
5:53 PM,73.9,35.1,24,30.16,10.0,SSW,10.4,17.3,N/A,,Clear,210,2013-05-20 00:53:00
6:53 PM,72.0,36.0,27,30.17,10.0,SW,11.5,-,N/A,,Clear,220,2013-05-20 01:53:00
7:53 PM,69.1,37.0,31,30.18,10.0,WSW,10.4,-,N/A,,Clear,250,2013-05-20 02:53:00
9:53 PM,62.1,36.0,38,30.20,10.0,WNW,15.0,-,N/A,,Clear,300,2013-05-20 04:53:00
10:53 PM,60.1,36.0,41,30.19,10.0,WNW,15.0,23.0,N/A,,Clear,300,2013-05-20 05:53:00
11:53 PM,59.0,36.0,42,30.19,10.0,WNW,15.0,-,N/A,,Clear,300,2013-05-20 06:53:00